QPF
0.00 0.00 0.00 0.00 0.00 0.00 0.00 0.00 0.00 0.00 0.00 0.00 0.00 0.00 0.00 0.00 0.00 0.00 0.00 0.00 0.00 0.00 0.00 0.00 0.00 0.00 0.00 0.00 0.00 0.00 0.01 0.00 0.00 0.00 0.00 0.00 0.00 0.00 0.00 0.00 0.00 0.00 0.00
0.00 0.00 0.00 0.00 0.00 0.00 0.00 0.00 0.00 0.00 0.00 0.00 0.00 0.00 0.00 0.00 0.00 0.00 0.00 0.00 0.00 0.00 0.00 0.00 0.00 0.00 0.00 0.00 0.00 0.00 0.00 0.00 0.00 0.00 0.00 0.00 0.00 0.00 0.00 0.00 0.00 0.00 0.00
0.00 0.00 0.00 0.00 0.00 0.00 0.00 0.00 0.00 0.00 0.00 0.00 0.00 0.00 0.00 0.00 0.00 0.00 0.00 0.00 0.00 0.00 0.00 0.00 0.00 0.00 0.00 0.00 0.00 0.00 0.00 0.00 0.00 0.00 0.00 0.00 0.00 0.00 0.00 0.00 0.00 0.00 0.00
0.00 0.00 0.00 0.00 0.00 0.00 0.00 0.00 0.00 0.00 0.00 0.00 0.00 0.00 0.00 0.00 0.00 0.00 0.00 0.00 0.00 0.00 0.00 0.00 0.00 0.00 0.00 0.00 0.00 0.00 0.00 0.00 0.00 0.00 0.00 0.00 0.00 0.00 0.00 0.00 0.00 0.00 0.00
0.00 0.00 0.00 0.00 0.00 0.00 0.00 0.00 0.00 0.00 0.00 0.00 0.00 0.00 0.00 0.00 0.00 0.00 0.00 0.00 0.00 0.00 0.00 0.00 0.00 0.00 0.00 0.00 0.00 0.00 0.00 0.00 0.00 0.00 0.00 0.00 0.00 0.00 0.00 0.00 0.00 0.00 0.00
0.00 0.00 0.00 0.00 0.00 0.00 0.00 0.00 0.00 0.00 0.00 0.00 0.00 0.00 0.00 0.00 0.00 0.00 0.00 0.00 0.00 0.00 0.00 0.00 0.00 0.00 0.00 0.00 0.00 0.00 0.00 0.00 0.00 0.00 0.00 0.00 0.00 0.00 0.00 0.00 0.00 0.00 0.00
0.00 0.00 0.00 0.00 0.00 0.00 0.00 0.00 0.00 0.00 0.00 0.00 0.00 0.00 0.00 0.00 0.00 0.00 0.00 0.00 0.00 0.00 0.00 0.00 0.00 0.00 0.00 0.00 0.00 0.00 0.00 0.00 0.00 0.00 0.00 0.00 0.00 0.00 0.00 0.00 0.00 0.00 0.00
0.00 0.00 0.00 0.00 0.00 0.00 0.00 0.00 0.00 0.00 0.00 0.00 0.00 0.00 0.00 0.00 0.00 0.00 0.00 0.00 0.00 0.00 0.00 0.00 0.00 0.00 0.00 0.00 0.00 0.00 0.00 0.00 0.00 0.00 0.00 0.00 0.00 0.00 0.00 0.00 0.00 0.00 0.00
0.00 0.00 0.00 0.00 0.00 0.00 0.00 0.00 0.00 0.00 0.00 0.00 0.00 0.00 0.00 0.00 0.00 0.00 0.00 0.00 0.00 0.00 0.00 0.00 0.00 0.00 0.00 0.00 0.00 0.00 0.00 0.00 0.00 0.00 0.00 0.00 0.00 0.00 0.00 0.00 0.00 0.00 0.00
0.00 0.00 0.00 0.00 0.00 0.00 0.00 0.00 0.00 0.00 0.00 0.00 0.00 0.00 0.00 0.00 0.00 0.00 0.00 0.00 0.00 0.00 0.00 0.00 0.00 0.00 0.00 0.00 0.00 0.00 0.00 0.00 0.00 0.00 0.00 0.00 0.00 0.00 0.00 0.00 0.00 0.00 0.00
0.00 0.00 0.00 0.00 0.00 0.00 0.00 0.00 0.00 0.00 0.00 0.00 0.00 0.00 0.00 0.00 0.00 0.00 0.00 0.00 0.00 0.00 0.00 0.00 0.00 0.00 0.00 0.00 0.00 0.00 0.00 0.00 0.00 0.00 0.00 0.00 0.00 0.00 0.00 0.00 0.00 0.00 0.00
0.00 0.00 0.00 0.00 0.00 0.00 0.00 0.00 0.00 0.00 0.00 0.00 0.00 0.00 0.00 0.00 0.00 0.00 0.00 0.00 0.00 0.00 0.00 0.00 0.00 0.00 0.00 0.00 0.00 0.00 0.00 0.00 0.00 0.00 0.00 0.00 0.00 0.00 0.00 0.00 0.00 0.00 0.00
0.00 0.00 0.00 0.00 0.00 0.00 0.00 0.00 0.00 0.00 0.00 0.00 0.00 0.00 0.00 0.00 0.00 0.00 0.00 0.00 0.00 0.00 0.00 0.00 0.00 0.00 0.00 0.00 0.00 0.00 0.00 0.00 0.00 0.00 0.00 0.00 0.00 0.00 0.00 0.00 0.00 0.00 0.00
0.00 0.00 0.00 0.00 0.00 0.00 0.00 0.00 0.00 0.00 0.00 0.00 0.00 0.00 0.00 0.00 0.00 0.00 0.00 0.00 0.00 0.00 0.00 0.00 0.00 0.00 0.00 0.00 0.00 0.00 0.00 0.00 0.00 0.00 0.00 0.00 0.00 0.00 0.00 0.00 0.01 0.02 0.01
0.00 0.00 0.00 0.00 0.00 0.00 0.00 0.00 0.00 0.00 0.00 0.00 0.00 0.00 0.00 0.00 0.00 0.00 0.00 0.00 0.00 0.00 0.00 0.00 0.00 0.00 0.00 0.00 0.00 0.00 0.00 0.00 0.00 0.00 0.00 0.00 0.00 0.00 0.00 0.00 0.00 0.01 0.01
0.00 0.00 0.00 0.00 0.00 0.00 0.00 0.00 0.00 0.00 0.00 0.00 0.00 0.00 0.00 0.00 0.00 0.00 0.00 0.00 0.00 0.00 0.00 0.00 0.00 0.00 0.00 0.00 0.00 0.00 0.00 0.00 0.00 0.00 0.00 0.00 0.00 0.00 0.00 0.00 0.00 0.00 0.00
0.00 0.00 0.00 0.00 0.00 0.00 0.00 0.00 0.00 0.00 0.00 0.00 0.00 0.00 0.00 0.00 0.00 0.00 0.00 0.00 0.00 0.00 0.00 0.00 0.00 0.00 0.00 0.00 0.00 0.00 0.00 0.00 0.00 0.00 0.00 0.00 0.00 0.00 0.00 0.00 0.00 0.00 0.00
0.00 0.00 0.00 0.00 0.00 0.00 0.00 0.00 0.00 0.00 0.00 0.00 0.00 0.00 0.00 0.00 0.00 0.00 0.00 0.00 0.00 0.00 0.00 0.00 0.00 0.00 0.00 0.00 0.00 0.00 0.00 0.00 0.00 0.00 0.00 0.00 0.00 0.00 0.00 0.00 0.00 0.00 0.00
0.00 0.00 0.00 0.00 0.00 0.00 0.00 0.00 0.00 0.00 0.00 0.00 0.00 0.00 0.00 0.00 0.00 0.00 0.00 0.00 0.00 0.00 0.00 0.00 0.00 0.00 0.00 0.00 0.00 0.00 0.00 0.00 0.00 0.00 0.00 0.00 0.00 0.00 0.00 0.00 0.00 0.00 0.00
0.00 0.00 0.00 0.00 0.00 0.00 0.00 0.00 0.00 0.00 0.00 0.00 0.00 0.00 0.00 0.00 0.00 0.00 0.00 0.00 0.00 0.00 0.00 0.00 0.00 0.00 0.00 0.00 0.00 0.00 0.00 0.00 0.00 0.00 0.00 0.00 0.00 0.00 0.00 0.00 0.00 0.01 0.00
0.00 0.00 0.00 0.00 0.00 0.00 0.00 0.00 0.00 0.00 0.00 0.00 0.00 0.00 0.00 0.00 0.00 0.00 0.00 0.00 0.00 0.00 0.00 0.00 0.00 0.00 0.00 0.00 0.00 0.00 0.00 0.00 0.00 0.00 0.00 0.00 0.00 0.00 0.00 0.00 0.01 0.01 0.00
0.00 0.00 0.00 0.00 0.00 0.00 0.00 0.00 0.00 0.00 0.00 0.00 0.00 0.00 0.00 0.00 0.00 0.00 0.00 0.00 0.00 0.00 0.00 0.00 0.00 0.00 0.00 0.00 0.00 0.00 0.00 0.00 0.00 0.00 0.00 0.00 0.00 0.00 0.00 0.00 0.00 0.01 0.01
0.00 0.00 0.00 0.00 0.00 0.00 0.00 0.00 0.00 0.00 0.00 0.00 0.00 0.00 0.00 0.00 0.00 0.00 0.00 0.00 0.00 0.00 0.00 0.00 0.00 0.00 0.00 0.00 0.00 0.00 0.00 0.00 0.00 0.00 0.00 0.00 0.00 0.00 0.00 0.00 0.00 0.01 0.01
0.00 0.00 0.00 0.00 0.00 0.00 0.00 0.00 0.00 0.00 0.00 0.00 0.00 0.00 0.00 0.00 0.00 0.00 0.00 0.00 0.00 0.00 0.00 0.00 0.00 0.00 0.00 0.00 0.00 0.00 0.00 0.00 0.00 0.00 0.00 0.00 0.00 0.00 0.00 0.00 0.00 0.00 0.00
0.00 0.00 0.00 0.00 0.00 0.00 0.00 0.00 0.00 0.00 0.00 0.00 0.00 0.00 0.00 0.00 0.00 0.00 0.00 0.00 0.00 0.00 0.00 0.00 0.00 0.00 0.00 0.00 0.00 0.00 0.00 0.00 0.00 0.00 0.00 0.00 0.00 0.00 0.00 0.00 0.00 0.00 0.00
0.00 0.00 0.00 0.00 0.00 0.00 0.00 0.00 0.00 0.00 0.00 0.00 0.00 0.00 0.00 0.00 0.00 0.00 0.00 0.00 0.00 0.00 0.00 0.00 0.00 0.00 0.00 0.00 0.00 0.00 0.00 0.00 0.00 0.00 0.00 0.00 0.00 0.00 0.00 0.00 0.00 0.00 0.00
MSLP
1017.67 1017.76 1017.97 1018.21 1018.26 1018.43 1018.65 1018.62 1018.66 1018.62 1018.47 1018.42 1018.55 1018.37 1018.39 1018.04 1017.86 1017.61 1017.43 1017.41 1017.36 1017.39 1017.45 1017.37 1017.09 1016.86 1016.88 1016.88 1016.85 1016.55 1016.31 1016.11 1015.99 1016.17 1015.55 1015.06 1014.46 1014.40 1014.00 1013.54 1013.19 1012.86 1013.28
1017.93 1018.02 1018.30 1018.52 1018.63 1018.88 1019.02 1018.98 1018.98 1018.90 1018.85 1018.84 1018.74 1018.63 1018.44 1018.15 1017.94 1017.81 1017.66 1017.53 1017.51 1017.47 1017.43 1017.46 1017.44 1017.22 1017.15 1016.98 1016.81 1016.74 1016.89 1016.70 1016.23 1016.16 1015.94 1015.23 1014.08 1014.08 1013.69 1013.20 1013.11 1012.78 1013.28
1018.06 1018.37 1018.63 1018.97 1019.15 1019.41 1019.48 1019.30 1019.24 1019.15 1019.13 1019.03 1018.81 1018.62 1018.40 1018.13 1018.21 1018.04 1017.94 1017.73 1017.47 1017.38 1017.40 1017.40 1017.39 1017.37 1017.26 1017.20 1016.98 1016.71 1016.66 1016.74 1016.28 1015.89 1016.06 1015.42 1014.97 1014.43 1013.69 1013.36 1012.73 1013.05 1013.26
1018.58 1018.80 1019.10 1019.54 1019.79 1019.83 1019.59 1019.45 1019.44 1019.42 1019.30 1019.18 1019.11 1019.15 1019.12 1019.09 1018.81 1018.49 1018.28 1017.95 1017.60 1017.55 1017.49 1017.36 1017.33 1017.33 1017.31 1017.22 1017.08 1016.71 1016.58 1016.40 1016.37 1016.00 1015.62 1015.51 1015.49 1015.22 1014.60 1013.65 1013.40 1013.33 1013.22
1018.91 1019.27 1019.53 1019.90 1019.95 1019.91 1019.88 1019.70 1019.60 1019.56 1019.52 1019.37 1019.27 1019.38 1019.52 1019.38 1019.06 1018.88 1018.65 1018.33 1017.94 1017.65 1017.59 1017.68 1017.65 1017.56 1017.42 1017.19 1016.90 1016.74 1016.63 1016.56 1016.59 1016.39 1016.11 1015.90 1015.70 1015.60 1015.36 1014.60 1013.95 1013.48 1013.10
1019.13 1019.38 1019.56 1019.67 1019.92 1019.99 1020.04 1020.05 1020.07 1019.99 1019.88 1019.83 1019.70 1019.70 1019.92 1019.83 1019.58 1019.37 1019.28 1018.93 1018.55 1018.25 1017.92 1017.77 1017.71 1017.56 1017.47 1017.26 1016.96 1016.71 1016.50 1016.25 1015.99 1015.91 1015.81 1015.62 1015.44 1015.12 1015.36 1015.25 1014.58 1014.16 1013.52
1019.34 1019.71 1019.92 1020.13 1020.23 1020.19 1020.10 1020.02 1019.99 1019.95 1019.82 1019.86 1019.78 1019.68 1019.70 1019.72 1019.80 1019.65 1019.53 1019.27 1018.90 1018.61 1018.45 1018.20 1018.00 1017.75 1017.33 1017.06 1016.88 1016.74 1016.42 1016.10 1015.90 1015.55 1015.35 1015.12 1015.01 1014.90 1014.70 1014.60 1014.21 1014.03 1013.34
1019.55 1019.78 1019.93 1020.11 1020.18 1020.16 1020.15 1020.15 1020.14 1020.07 1020.00 1020.04 1019.98 1019.86 1019.86 1019.85 1019.73 1019.60 1019.40 1019.20 1018.98 1018.63 1018.28 1018.16 1018.06 1017.81 1017.54 1017.15 1016.81 1016.61 1016.36 1015.99 1015.63 1015.37 1015.08 1014.79 1014.52 1014.29 1014.37 1014.54 1014.40 1013.82 1013.33
1019.64 1019.95 1020.04 1020.13 1020.19 1020.12 1020.19 1020.25 1020.25 1020.22 1020.17 1020.19 1020.04 1019.88 1019.77 1019.75 1019.73 1019.53 1019.38 1019.16 1018.97 1018.71 1018.39 1018.21 1018.06 1017.71 1017.42 1017.15 1016.88 1016.64 1016.38 1016.10 1015.73 1015.30 1014.87 1014.53 1014.24 1014.03 1013.71 1013.70 1013.73 1013.82 1013.29
1019.91 1020.04 1020.06 1020.15 1020.23 1020.29 1020.35 1020.43 1020.36 1020.32 1020.17 1020.08 1020.02 1019.96 1019.87 1019.73 1019.56 1019.31 1019.06 1018.89 1018.76 1018.66 1018.50 1018.22 1017.95 1017.67 1017.28 1016.94 1016.77 1016.47 1016.18 1015.95 1015.69 1015.37 1015.01 1014.48 1013.97 1013.69 1013.68 1013.34 1013.22 1013.28 1013.35
1019.94 1019.92 1019.72 1019.76 1019.68 1019.84 1020.18 1020.38 1020.43 1020.38 1020.31 1020.11 1020.06 1019.98 1019.83 1019.64 1019.50 1019.34 1019.05 1018.76 1018.47 1018.29 1018.10 1017.94 1017.70 1017.46 1017.23 1016.88 1016.59 1016.30 1015.93 1015.67 1015.32 1015.03 1014.90 1014.68 1014.18 1013.52 1013.27 1013.21 1013.01 1012.98 1012.99
1019.90 1019.99 1019.91 1019.80 1019.67 1019.90 1019.99 1020.14 1020.17 1020.15 1020.06 1019.97 1019.86 1019.80 1019.65 1019.43 1019.24 1019.01 1018.71 1018.44 1018.18 1017.94 1017.78 1017.62 1017.38 1017.09 1016.80 1016.43 1016.32 1016.08 1015.72 1015.61 1015.24 1014.74 1014.39 1014.06 1013.75 1013.59 1012.90 1012.53 1012.52 1012.37 1012.40
1020.03 1020.29 1020.29 1020.09 1019.89 1019.85 1019.87 1019.86 1019.84 1019.85 1019.66 1019.57 1019.53 1019.52 1019.38 1019.13 1018.88 1018.57 1018.36 1018.16 1017.82 1017.50 1017.23 1017.01 1016.81 1016.69 1016.49 1016.24 1015.88 1015.54 1015.35 1015.11 1015.01 1014.69 1014.29 1013.88 1013.37 1012.99 1012.75 1012.26 1011.87 1011.59 1011.47
1020.63 1020.69 1020.63 1020.54 1020.45 1020.37 1020.20 1020.05 1019.77 1019.36 1019.14 1019.01 1018.93 1018.87 1018.66 1018.40 1018.15 1017.94 1017.75 1017.65 1017.54 1017.25 1016.88 1016.57 1016.28 1015.97 1015.88 1015.83 1015.40 1015.15 1014.87 1014.88 1014.77 1014.60 1014.14 1013.64 1013.18 1012.69 1012.36 1011.95 1011.50 1011.21 1010.94
1020.94 1020.95 1021.08 1020.94 1020.82 1020.63 1020.16 1019.85 1019.39 1019.00 1018.59 1018.34 1018.09 1017.91 1017.68 1017.64 1017.60 1017.52 1017.26 1016.99 1016.85 1016.55 1016.28 1016.05 1015.78 1015.51 1015.26 1015.15 1014.88 1014.73 1014.52 1014.56 1014.54 1014.25 1013.84 1013.37 1012.83 1012.30 1011.91 1011.62 1011.23 1010.96 1010.64
1021.42 1021.29 1021.30 1021.33 1021.05 1020.76 1020.30 1019.91 1019.46 1018.87 1018.11 1017.63 1017.48 1017.24 1017.12 1017.11 1017.20 1017.14 1016.94 1016.57 1016.22 1016.03 1015.86 1015.55 1015.21 1014.96 1014.59 1014.25 1014.25 1014.19 1014.09 1014.01 1014.06 1013.83 1013.35 1013.00 1012.50 1011.85 1011.32 1011.01 1010.68 1010.43 1010.31
1021.67 1021.71 1021.68 1021.53 1021.29 1020.89 1020.34 1019.79 1019.26 1018.62 1018.13 1017.53 1017.28 1016.93 1016.73 1016.78 1016.76 1016.65 1016.42 1016.24 1015.95 1015.59 1015.27 1014.91 1014.65 1014.29 1013.85 1013.57 1013.49 1013.40 1013.35 1013.38 1013.27 1013.15 1012.83 1012.40 1011.93 1011.58 1011.20 1010.81 1010.52 1010.01 1009.69
1022.08 1021.94 1021.74 1021.49 1021.11 1020.65 1020.21 1019.71 1019.14 1018.53 1017.88 1017.21 1016.71 1016.41 1016.34 1016.16 1015.84 1015.84 1015.84 1015.51 1015.21 1014.96 1014.64 1014.22 1013.84 1013.57 1013.10 1012.81 1012.67 1012.54 1012.41 1012.45 1012.33 1012.22 1012.03 1011.72 1011.32 1011.01 1010.72 1010.40 1010.06 1009.66 1009.34
1022.06 1021.88 1021.58 1021.16 1020.63 1020.20 1019.71 1019.17 1018.63 1018.13 1017.56 1016.95 1016.38 1016.06 1015.87 1015.60 1015.35 1015.18 1015.03 1014.78 1014.56 1014.22 1013.87 1013.48 1013.16 1012.92 1012.40 1012.00 1011.82 1011.70 1011.61 1011.57 1011.40 1011.23 1011.04 1010.85 1010.55 1010.23 1010.06 1009.73 1009.35 1008.93 1008.56
1021.75 1021.50 1021.11 1020.58 1020.09 1019.54 1019.02 1018.55 1018.06 1017.51 1017.02 1016.39 1015.86 1015.39 1015.14 1014.95 1014.74 1014.50 1014.26 1013.86 1013.61 1013.35 1013.02 1012.66 1012.25 1011.94 1011.54 1011.03 1010.87 1010.75 1010.75 1010.65 1010.53 1010.32 1010.11 1009.84 1009.64 1009.32 1009.16 1008.98 1008.81 1008.48 1008.11
1021.23 1020.80 1020.42 1020.14 1019.51 1018.92 1018.38 1017.85 1017.26 1016.75 1016.10 1015.53 1015.00 1014.62 1014.19 1014.08 1013.83 1013.52 1013.20 1012.94 1012.66 1012.42 1012.16 1011.88 1011.38 1011.05 1010.62 1010.18 1009.90 1009.68 1009.68 1009.72 1009.62 1009.54 1009.31 1009.06 1008.89 1008.67 1008.31 1008.16 1008.13 1007.94 1007.62
1020.24 1019.90 1019.53 1019.07 1018.48 1018.03 1017.56 1016.96 1016.37 1015.62 1014.98 1014.48 1014.10 1013.79 1013.50 1013.22 1012.87 1012.68 1012.27 1011.85 1011.60 1011.44 1011.16 1010.89 1010.48 1009.97 1009.50 1009.21 1008.87 1008.64 1008.58 1008.59 1008.75 1008.60 1008.25 1008.08 1008.01 1007.93 1007.62 1007.50 1007.41 1007.20 1006.81
1019.46 1018.97 1018.64 1018.16 1017.58 1017.02 1016.52 1016.01 1015.29 1014.82 1014.32 1013.79 1013.28 1012.87 1012.52 1012.15 1011.81 1011.67 1011.38 1011.08 1010.74 1010.43 1010.00 1009.75 1009.46 1009.02 1008.69 1008.37 1008.01 1007.64 1007.62 1007.68 1007.69 1007.55 1007.28 1007.05 1006.90 1006.85 1006.76 1006.65 1006.52 1006.41 1006.24
1018.63 1018.27 1017.89 1017.19 1016.51 1016.11 1015.65 1015.17 1014.53 1013.98 1013.60 1012.99 1012.42 1012.05 1011.74 1011.37 1010.96 1010.55 1010.29 1009.98 1009.62 1009.29 1008.95 1008.66 1008.38 1008.05 1007.73 1007.49 1007.19 1007.04 1006.94 1006.95 1006.94 1006.85 1006.80 1006.56 1006.31 1006.15 1006.01 1005.84 1005.77 1005.66 1005.38
1017.84 1017.47 1016.96 1016.33 1015.74 1015.28 1014.70 1014.23 1013.64 1013.14 1012.64 1012.13 1011.62 1011.26 1010.94 1010.55 1010.15 1009.75 1009.37 1009.04 1008.63 1008.39 1008.02 1007.75 1007.55 1007.36 1007.00 1006.63 1006.46 1006.34 1006.27 1006.34 1006.44 1006.44 1006.25 1006.00 1005.76 1005.48 1005.35 1005.15 1005.00 1004.77 1004.43
1017.02 1016.59 1016.06 1015.55 1014.91 1014.36 1013.82 1013.31 1012.78 1012.35 1011.86 1011.27 1010.77 1010.40 1010.11 1009.71 1009.33 1008.92 1008.39 1008.03 1007.64 1007.29 1007.02 1006.74 1006.51 1006.16 1005.84 1005.49 1005.35 1005.26 1005.30 1005.34 1005.43 1005.35 1005.38 1005.07 1004.86 1004.62 1004.45 1004.30 1003.98 1003.80 1003.52
Thickness
5658 5657 5654 5651 5648 5643 5638 5636 5633 5631 5628 5625 5621 5620 5616 5616 5615 5614 5611 5607 5604 5599 5595 5591 5589 5583 5576 5574 5573 5571 5575 5582 5583 5582 5587 5594 5598 5602 5609 5617 5621 5627 5627
5648 5647 5642 5639 5635 5630 5627 5624 5622 5621 5619 5616 5613 5611 5610 5610 5608 5605 5604 5601 5598 5594 5590 5586 5583 5580 5574 5570 5572 5575 5571 5569 5573 5572 5575 5584 5600 5603 5606 5611 5615 5619 5615
5638 5636 5633 5626 5620 5616 5614 5614 5613 5612 5610 5608 5607 5604 5604 5602 5598 5596 5594 5593 5591 5588 5584 5581 5578 5574 5571 5566 5567 5568 5568 5568 5571 5573 5570 5576 5584 5591 5597 5602 5611 5610 5608
5626 5623 5618 5611 5608 5606 5607 5606 5604 5603 5601 5599 5596 5593 5589 5585 5585 5585 5584 5583 5582 5579 5576 5574 5571 5568 5565 5562 5558 5559 5564 5565 5564 5568 5570 5571 5570 5572 5578 5590 5593 5597 5601
5614 5610 5606 5602 5600 5599 5597 5595 5594 5592 5589 5587 5585 5581 5577 5575 5574 5572 5571 5571 5571 5570 5568 5564 5561 5560 5558 5556 5556 5554 5549 5549 5549 5549 5551 5555 5557 5559 5564 5573 5580 5587 5591
5604 5601 5598 5595 5591 5589 5586 5583 5580 5578 5576 5574 5572 5569 5565 5562 5561 5559 5557 5555 5555 5556 5556 5556 5555 5553 5550 5548 5547 5546 5545 5544 5545 5546 5547 5548 5551 5555 5554 5558 5564 5569 5579
5594 5590 5588 5584 5583 5580 5577 5575 5571 5569 5567 5564 5561 5559 5556 5552 5548 5546 5543 5542 5541 5540 5538 5539 5540 5541 5542 5541 5538 5537 5537 5536 5535 5538 5539 5541 5541 5542 5546 5551 5561 5560 5569
5587 5583 5579 5574 5571 5569 5565 5563 5560 5557 5554 5550 5548 5545 5542 5538 5535 5533 5532 5529 5527 5527 5527 5525 5524 5524 5525 5528 5529 5528 5526 5528 5527 5526 5529 5531 5533 5536 5535 5533 5536 5548 5556
5577 5573 5568 5564 5561 5557 5552 5548 5545 5542 5539 5535 5533 5530 5528 5524 5520 5519 5517 5516 5513 5512 5512 5510 5509 5508 5508 5510 5512 5512 5512 5511 5511 5514 5516 5519 5521 5523 5527 5528 5529 5529 5540
5566 5560 5554 5550 5546 5542 5537 5532 5529 5525 5523 5520 5516 5513 5509 5507 5506 5505 5503 5501 5498 5494 5493 5492 5492 5492 5494 5494 5494 5496 5498 5498 5498 5498 5499 5502 5508 5511 5510 5516 5519 5521 5523
5552 5547 5544 5540 5535 5532 5523 5517 5512 5509 5505 5502 5499 5495 5491 5489 5486 5484 5483 5482 5482 5480 5479 5477 5475 5474 5473 5474 5475 5476 5478 5481 5484 5484 5484 5486 5489 5497 5500 5500 5504 5509 5511
5540 5532 5528 5524 5522 5514 5508 5501 5497 5493 5489 5484 5481 5476 5472 5470 5468 5466 5464 5464 5463 5462 5460 5459 5459 5458 5458 5459 5456 5457 5460 5460 5464 5468 5470 5473 5477 5479 5487 5492 5494 5498 5501
5521 5515 5508 5504 5502 5497 5491 5487 5482 5476 5472 5467 5462 5457 5452 5449 5447 5447 5445 5443 5443 5443 5443 5442 5441 5439 5438 5439 5439 5441 5442 5444 5445 5447 5450 5456 5461 5466 5469 5476 5483 5488 5492
5504 5497 5490 5485 5479 5473 5468 5463 5459 5456 5453 5449 5446 5443 5438 5433 5430 5429 5427 5423 5421 5422 5422 5423 5424 5424 5421 5419 5421 5422 5424 5424 5425 5427 5431 5436 5442 5448 5453 5459 5466 5472 5477
5482 5479 5471 5464 5459 5455 5451 5446 5444 5440 5434 5431 5430 5426 5423 5418 5412 5408 5407 5406 5403 5402 5402 5402 5402 5402 5402 5402 5400 5401 5403 5403 5405 5408 5411 5416 5423 5430 5436 5441 5448 5454 5461
5461 5458 5449 5440 5437 5431 5427 5423 5420 5417 5416 5416 5411 5408 5402 5398 5392 5387 5384 5383 5383 5380 5378 5380 5380 5380 5382 5383 5380 5380 5381 5382 5383 5388 5392 5396 5403 5411 5420 5425 5432 5439 5445
5443 5431 5424 5418 5413 5408 5404 5403 5401 5397 5394 5389 5387 5383 5381 5376 5370 5366 5361 5357 5355 5355 5355 5355 5353 5355 5359 5360 5358 5358 5359 5361 5363 5366 5371 5377 5384 5389 5397 5405 5412 5422 5429
5415 5409 5402 5398 5393 5388 5383 5378 5377 5374 5370 5367 5365 5361 5355 5349 5347 5343 5338 5335 5331 5330 5330 5330 5330 5330 5337 5339 5338 5339 5340 5341 5343 5346 5351 5357 5364 5369 5376 5385 5395 5404 5411
5388 5382 5377 5374 5373 5367 5362 5357 5356 5353 5350 5344 5340 5337 5333 5327 5323 5319 5317 5313 5309 5308 5308 5309 5311 5310 5316 5319 5319 5320 5321 5323 5326 5328 5332 5339 5345 5351 5358 5367 5378 5389 5398
5373 5366 5362 5359 5354 5351 5344 5338 5334 5328 5323 5320 5315 5313 5310 5306 5302 5300 5298 5298 5294 5293 5293 5296 5298 5299 5302 5307 5307 5306 5304 5307 5310 5313 5316 5322 5329 5336 5342 5349 5358 5371 5380
5357 5350 5343 5337 5334 5328 5322 5316 5313 5309 5306 5303 5299 5296 5296 5291 5288 5286 5286 5285 5285 5283 5284 5285 5290 5290 5293 5296 5298 5299 5295 5294 5295 5298 5303 5306 5310 5318 5327 5334 5342 5351 5361
5345 5340 5332 5329 5325 5316 5305 5298 5293 5290 5288 5287 5285 5283 5280 5279 5279 5276 5277 5278 5277 5275 5276 5277 5279 5285 5288 5288 5291 5292 5290 5287 5282 5285 5291 5294 5297 5300 5311 5317 5324 5334 5345
5331 5325 5316 5311 5307 5301 5293 5284 5283 5277 5271 5267 5265 5265 5267 5270 5269 5266 5264 5264 5266 5266 5269 5270 5271 5275 5278 5278 5281 5285 5281 5278 5275 5275 5278 5284 5288 5290 5297 5305 5311 5319 5329
5318 5309 5301 5297 5294 5289 5283 5277 5273 5268 5262 5259 5258 5257 5254 5255 5256 5256 5256 5255 5257 5258 5260 5261 5261 5263 5265 5267 5270 5269 5267 5266 5265 5264 5264 5270 5275 5279 5284 5292 5298 5305 5316
5305 5297 5291 5287 5284 5280 5277 5272 5268 5262 5258 5255 5253 5250 5248 5246 5245 5245 5245 5245 5248 5248 5249 5250 5249 5247 5249 5254 5255 5255 5254 5252 5251 5251 5254 5258 5262 5266 5271 5278 5287 5295 5305
5293 5287 5285 5281 5280 5277 5274 5270 5265 5259 5255 5253 5250 5247 5242 5240 5239 5237 5238 5240 5240 5241 5243 5242 5241 5242 5243 5246 5246 5245 5244 5245 5244 5245 5246 5252 5255 5259 5262 5269 5280 5288 5298